utc_time,unix_time,temp,cond,salinity,tds,chla_rfu,chla_ugl,bga_rfu,bga_ugl,odo,sat,nitrate_um,nitrogen_mg,stage,area,discharge,total_discharge
2018-08-01 00:00:00+00:00,1533082753,22.539,54041.3,37.76,36.86,,,,,14.36,206.42,21.945,0.30736,0.954,1.5264,0.0143,0.0286
2018-08-01 00:20:00+00:00,1533083953,22.632,54728.71,38.22,37.26,,,,,15.01,216.79,24.626,0.34493,0.9555,1.5288,0.05735,0.1147
2018-08-01 00:40:00+00:00,1533085153,22.696,52949.46,36.77,36,,,,,14.32,205.21,26.04,0.36475,0.956,1.5296,0.0487,0.0974
2018-08-01 01:00:00+00:00,1533086353,22.661,52373.57,36.35,35.63,,,,,15.32,218.85,27.109,0.37969,0.956,1.5296,0.0129,0.0258
2018-08-01 01:20:00+00:00,1533087553,22.699,52868.37,36.7,35.94,,,,,14.86,213,30.266,0.42391,0.9565,1.5304,0.0416,0.0832
2018-08-01 01:40:00+00:00,1533088753,22.593,49243.1,33.97,33.55,,,,,15.9,223.94,32.639,0.45715,0.957,1.5312,0.0545,0.109
2018-08-01 02:00:00+00:00,1533089953,22.385,49448.43,34.29,33.83,,,,,14.86,208.8,40.348,0.56513,0.957,1.5312,0.0445,0.089
2018-08-01 02:20:00+00:00,1533091153,22.15,49713.96,34.68,34.17,,,,,14.17,198.75,47.56,0.66618,0.9565,1.5304,0.0366,0.0732
2018-08-01 02:40:00+00:00,1533092353,21.809,48957.86,34.36,33.89,,,,,14.05,195.61,59.743,0.83679,0.959,1.5344,0.0432,0.0864
2018-08-01 03:00:00+00:00,1533093553,21.505,48715.11,34.41,33.93,,,,,14.42,199.65,68.28,0.9564,0.958,1.5328,-0.0129,-0.0258
2018-08-01 03:20:00+00:00,1533094752,21.207,47187.18,33.44,33.07,,,,,12.86,176.15,75.163,1.05278,0.96,1.536,0.00865,0.0173
2018-08-01 03:40:00+00:00,1533095952,21.281,47785.85,33.86,33.44,,,,,13.77,189.24,74.449,1.0428,0.961,1.5376,-0.0014,-0.0028
2018-08-01 04:00:00+00:00,1533097152,21.581,47894.33,33.7,33.31,,,,,13.24,182.81,60.158,0.84262,0.961,1.5376,0.0461,0.0922
2018-08-01 04:20:00+00:00,1533098352,21.854,49584.38,34.82,34.29,,,,,12.17,169.88,47.855,0.67029,0.9615,1.5384,-0.026,-0.052
2018-08-01 04:40:00+00:00,1533099552,21.754,48482.43,34.03,33.6,,,,,12.17,168.83,49.037,0.68685,0.963,1.5408,0.0231,0.0462
2018-08-01 05:00:00+00:00,1533100752,21.501,48483.66,34.23,33.77,,,,,11.45,158.43,52.301,0.73256,0.964,1.5424,0.013,0.026
2018-08-01 05:20:00+00:00,1533101953,21.035,47302.18,33.66,33.27,,,,,10.28,140.53,56.208,0.78731,0.9665,1.5464,0.03845,0.0769
2018-08-01 05:40:00+00:00,1533103153,20.215,46462.98,33.64,33.24,,,,,11.07,149.01,67.785,0.94943,0.968,1.5488,0.045,0.09
2018-08-01 06:00:00+00:00,1533104353,19.739,45850.59,33.52,33.13,,,,,10.72,143.01,77.351,1.08344,0.969,1.5504,0.1076,0.2152
2018-08-01 06:20:00+00:00,1533105553,19.746,43924.07,31.94,31.74,,,,,10.64,140.58,85.881,1.20293,0.9705,1.5528,0.05605,0.1121
2018-08-01 06:40:00+00:00,1533106753,19.483,43767.78,32.02,31.8,,,,,10.56,138.94,87.831,1.23023,0.971,1.5536,0.0525,0.105
2018-08-01 07:00:00+00:00,1533107953,19.314,44526.93,32.77,32.47,,,,,10.42,137.26,93.678,1.31212,0.973,1.5568,0.0307,0.0614
2018-08-01 07:20:00+00:00,1533109152,19.2,47368.78,35.22,34.63,,,,,9.56,127.48,90.645,1.26963,0.976,1.5616,0.02635,0.0527
2018-08-01 07:40:00+00:00,1533110353,19.14,45801.1,33.96,33.52,,,,,8.39,110.9,87.559,1.22645,0.979,1.5664,0.0279,0.0558
2018-08-01 08:00:00+00:00,1533111553,18.972,45377.63,33.75,33.33,,,,,8.21,108.1,83.679,1.17206,0.98,1.568,0.0353,0.0706
2018-08-01 08:20:00+00:00,1533112752,18.792,45217.43,33.76,33.35,,,,,8.05,105.66,82.901,1.16115,0.9815,1.5704,0.0405,0.081
2018-08-01 08:40:00+00:00,1533113952,18.616,45184.17,33.88,33.45,,,,,7.42,97.09,83.562,1.17042,0.983,1.5728,0.0192,0.0384
2018-08-01 09:00:00+00:00,1533115152,18.416,44735.33,33.66,33.26,,,,,7.05,91.83,83.435,1.16865,0.984,1.5744,0.0163,0.0326
2018-08-01 09:20:00+00:00,1533116352,18.212,44776.2,33.87,33.44,,,,,6.25,81.16,83.382,1.1679,0.9875,1.58,0.0052,0.0104
2018-08-01 09:40:00+00:00,1533117551,17.973,43193.44,32.72,32.43,,,,,6.33,81.25,82.761,1.15921,0.99,1.584,-0.0223,-0.0446
2018-08-01 10:00:00+00:00,1533118751,17.822,43084.52,32.75,32.45,,,,,5.95,76.2,82.409,1.15425,0.99,1.584,0.0461,0.0922
2018-08-01 10:20:00+00:00,1533119951,17.73,42180.84,32.06,31.84,,,,,6.21,79.05,82.063,1.14946,0.9905,1.5848,0.0565,0.113
2018-08-01 10:40:00+00:00,1533121151,17.649,42559.66,32.44,32.18,,,,,5.3,67.52,80.905,1.13322,0.99,1.584,0.0595,0.119
2018-08-01 11:00:00+00:00,1533122351,17.46,43226.8,33.16,32.82,,,,,5.04,64.32,79.205,1.1094,0.99,1.584,0.0283,0.0566
2018-08-01 11:20:00+00:00,1533123551,17.424,42708.45,32.75,32.46,,,,,4.02,51.08,78.254,1.09609,0.99,1.584,0.06765,0.1353
2018-08-01 11:40:00+00:00,1533124752,17.364,42397.1,32.53,32.26,,,,,4.55,57.65,77.219,1.08159,0.99,1.584,0.061,0.122
2018-08-01 12:00:00+00:00,1533125952,17.268,41971.11,32.24,32.01,,,,,3.75,47.33,74.251,1.04,0.99,1.584,0.0402,0.0804
2018-08-01 12:20:00+00:00,1533127152,17.185,41398.87,31.82,31.63,,,,,3.7,46.59,73.586,1.03072,0.9895,1.5832,0.0052,0.0104
2018-08-01 12:40:00+00:00,1533128352,17.111,42028.7,32.42,32.17,,,,,3.59,45.33,69.99,0.98033,0.988,1.5808,-0.0089,-0.0178
2018-08-01 13:00:00+00:00,1533129551,17.034,41651.93,32.16,31.93,,,,,3.99,50.2,66.824,0.93597,0.989,1.5824,0.0045,0.009
2018-08-01 13:20:00+00:00,1533130751,17.008,42218.45,32.67,32.39,,,,,2.98,37.55,65.542,0.91803,0.988,1.5808,-0.0267,-0.0534
2018-08-01 13:40:00+00:00,1533131951,16.943,41974.11,32.51,32.25,,,,,2.44,30.65,64.444,0.90264,0.987,1.5792,-0.1067,-0.2134
2018-08-01 14:00:00+00:00,1533133151,16.965,42658.83,33.08,32.75,,,,,2.04,25.81,61.789,0.86547,0.986,1.5776,-0.0459,-0.0918
2018-08-01 14:20:00+00:00,1533134352,16.982,42993.23,33.36,33,,,,,1.16,14.62,55.184,0.77293,0.9855,1.5768,-0.037,-0.074
2018-08-01 14:40:00+00:00,1533135552,16.901,43178.11,33.58,33.2,,,,,0.96,12.09,53.564,0.75027,0.985,1.576,-0.0266,-0.0532
2018-08-01 15:00:00+00:00,1533136751,16.89,43388.04,33.78,33.37,,,,,1.34,16.93,26.873,0.37642,0.984,1.5744,-0.0148,-0.0296
2018-08-01 15:20:00+00:00,1533137951,16.938,40548.84,31.28,31.15,,,,,1.73,21.56,33.571,0.47024,0.964,1.5424,-0.1592,-0.3184
2018-08-01 15:40:00+00:00,1533139152,17.13,41335.13,31.81,31.62,,,,,2.39,30.09,31.321,0.43869,0.948,1.5168,-0.3283,-0.6566
2018-08-01 16:00:00+00:00,1533140352,17.546,41733.16,31.82,31.63,,,,,1.68,21.29,30.789,0.43124,0.933,1.4928,-0.39,-0.78
2018-08-01 16:20:00+00:00,1533141551,18.024,43130.94,32.63,32.35,,,,,1.47,18.87,16.178,0.2266,0.926,1.4816,-0.2373,-0.4746
2018-08-01 16:40:00+00:00,1533142752,18.227,45822.7,34.74,34.21,,,,,1.89,24.66,19.565,0.27403,0.929,1.4864,-0.0598,-0.1196
2018-08-01 17:00:00+00:00,1533143951,17.791,44816.45,34.25,33.78,,,,,1.16,14.96,25.444,0.35638,-1,-1,0,0
2018-08-01 17:20:00+00:00,1533145151,17.964,45193.5,34.43,33.94,,,,,0.33,4.23,29.562,0.41407,0.946,1.5136,-0.01845,-0.0369
2018-08-01 17:40:00+00:00,1533146352,18.023,45529.39,34.67,34.14,,,,,0.41,5.29,28.598,0.40055,0.95,1.52,0.0142,0.0284
2018-08-02 22:00:00+00:00,1533248352,21.518,44530.81,31.11,31.01,,,,,13.09,177.76,22.252,0.31169,0.993,1.5888,0.0567,0.1134
2018-08-02 22:20:00+00:00,1533249552,21.81,45416.64,31.59,31.44,,,,,15.72,215.21,22.47,0.31472,0.9935,1.5896,0.0836,0.1672
2018-08-02 22:40:00+00:00,1533250752,21.997,45484.61,31.51,31.36,,,,,15.08,207.15,24.056,0.33693,0.994,1.5904,0.0732,0.1464
2018-08-02 23:00:00+00:00,1533251952,22.259,46248.27,31.91,31.72,,,,,15.49,214.18,24.011,0.3363,0.996,1.5936,0.0703,0.1406
2018-08-02 23:20:00+00:00,1533253152,22.479,47227.4,32.5,32.25,,,,,15.6,217.27,23.382,0.3275,0.999,1.5984,0.07585,0.1517
2018-08-02 23:40:00+00:00,1533254351,22.525,48431.59,33.39,33.04,,,,,15.32,214.67,23.293,0.32629,1.001,1.6016,0.1023,0.2046
2018-08-03 00:00:00+00:00,1533255551,22.631,47098.44,32.29,32.07,,,,,15.05,210.06,22.708,0.31805,1.005,1.608,0.077,0.154
2018-08-03 00:20:00+00:00,1533256751,22.728,48745.79,33.48,33.12,,,,,14.66,206.26,23.111,0.32372,1.006,1.6096,0.07635,0.1527
2018-08-03 00:40:00+00:00,1533257952,22.912,48997.02,33.53,33.17,,,,,15.34,216.61,20.255,0.28371,1.008,1.6128,0.0773,0.1546
2018-08-03 01:00:00+00:00,1533259151,23.15,50562.15,34.55,34.07,,,,,15.47,220.68,18.597,0.26046,1.006,1.6096,0.0665,0.133
2018-08-03 01:20:00+00:00,1533260351,23.173,50249.55,34.29,33.84,,,,,14.96,213.18,16.899,0.2367,1.008,1.6128,0.072,0.144
2018-08-03 01:40:00+00:00,1533261551,22.833,49583.59,34.05,33.62,,,,,16.03,226.76,22.615,0.31675,1.006,1.6096,0.0514,0.1028
2018-08-03 02:00:00+00:00,1533262751,22.751,49443.86,34,33.58,,,,,14.78,208.7,20.368,0.28531,0.998,1.5968,0.0465,0.093
2018-08-03 02:20:00+00:00,1533263952,22.689,49931.46,34.43,33.95,,,,,14.18,200.47,20.172,0.28254,1.0035,1.6056,0.04145,0.0829
2018-08-03 02:40:00+00:00,1533265151,22.355,49076.12,34.03,33.6,,,,,14.28,200.28,21.44,0.30034,1.003,1.6048,0.0301,0.0602
2018-08-03 03:00:00+00:00,1533266351,22.193,50452.81,35.23,34.65,,,,,15.05,211.96,22.731,0.3184,1.004,1.6064,0.0226,0.0452
2018-08-03 03:20:00+00:00,1533267551,21.761,48734.75,34.23,33.77,,,,,14.32,198.89,29.638,0.41512,1.003,1.6048,0.05355,0.1071
2018-08-03 03:40:00+00:00,1533268751,21.575,48925.46,34.52,34.03,,,,,13.76,190.84,28.244,0.39559,1.005,1.608,0.0619,0.1238
2018-08-03 04:00:00+00:00,1533269952,21.496,48849.05,34.53,34.03,,,,,12.51,173.24,33.321,0.46673,1.004,1.6064,-0.0166,-0.0332
2018-08-03 04:20:00+00:00,1533271151,21.238,48446.95,34.42,33.93,,,,,11.97,164.87,34.554,0.484,1.005,1.608,0.00605,0.0121
2018-08-03 04:40:00+00:00,1533272351,20.355,46946.88,33.92,33.49,,,,,11.2,151.45,37.913,0.53104,-1,-1,0,0
2018-08-03 05:00:00+00:00,1533273551,20.155,46622.61,33.82,33.39,,,,,10.03,134.98,64.168,0.89876,1.003,1.6048,-0.003,-0.006
2018-08-03 05:20:00+00:00,1533274751,20.011,46612.8,33.92,33.49,,,,,10.49,140.95,67.752,0.94895,1.005,1.608,0.05585,0.1117
2018-08-03 05:40:00+00:00,1533275951,19.805,47733.1,35.01,34.44,,,,,10.01,134.88,68.041,0.95302,1.003,1.6048,0.1146,0.2292
2018-08-03 06:00:00+00:00,1533277151,19.482,46749.68,34.47,33.97,,,,,9.71,129.51,70.551,0.98819,1.007,1.6112,-0.0242,-0.0484
2018-08-03 06:20:00+00:00,1533278352,19.389,47122.81,34.85,34.31,,,,,9.31,124.38,70.825,0.99201,1.0075,1.612,0.0401,0.0802
2018-08-03 06:40:00+00:00,1533279552,19.229,46568.63,34.53,34.02,,,,,9.48,126.02,70.926,0.99344,1.005,1.608,0.0604,0.1208
2018-08-03 07:00:00+00:00,1533280752,19.085,46593.23,34.67,34.14,,,,,9.21,122.25,70.507,0.98756,1.011,1.6176,0.0061,0.0122
2018-08-03 07:20:00+00:00,1533281951,19.001,46450.59,34.62,34.1,,,,,8.73,115.58,70.204,0.98333,1.0095,1.6152,0.1244,0.2488
2018-08-03 07:40:00+00:00,1533283152,18.855,46099.03,34.45,33.95,,,,,8.05,106.2,69.59,0.97471,1.013,1.6208,-0.0107,-0.0214
2018-08-03 08:00:00+00:00,1533284351,18.752,46646.29,34.99,34.43,,,,,7.86,103.9,68.299,0.95665,1.015,1.624,0.0092,0.0184
2018-08-03 08:20:00+00:00,1533285551,18.619,47071.62,35.46,34.84,,,,,7.71,101.92,67.553,0.94621,1.015,1.624,0.0595,0.119
2018-08-03 08:40:00+00:00,1533286751,18.484,45465.07,34.22,33.75,,,,,7.49,98,66.168,0.92678,1.015,1.624,0.0534,0.1068
2018-08-03 09:00:00+00:00,1533287952,18.388,45326.55,34.19,33.72,,,,,6.66,86.91,64.481,0.90318,1.015,1.624,0.0656,0.1312
2018-08-03 09:20:00+00:00,1533289151,18.362,45685.61,34.51,34.01,,,,,5.84,76.43,60.274,0.84423,1.014,1.6224,0.0602,0.1204
2018-08-03 09:40:00+00:00,1533290351,18.384,45117.56,34.01,33.57,,,,,5.33,69.53,56.696,0.79415,1.012,1.6192,0.038,0.076
2018-08-03 10:00:00+00:00,1533291551,18.465,45245.09,34.05,33.6,,,,,4.09,53.42,51.454,0.7207,1.013,1.6208,0.035,0.07
2018-08-03 10:20:00+00:00,1533292751,18.3,45025.11,34,33.56,,,,,3.9,50.78,50.974,0.71399,0.9815,1.5704,0.0472,0.0944
2018-08-03 10:40:00+00:00,1533293951,18.176,44834.15,33.95,33.51,,,,,3.54,45.94,47.189,0.66097,1.001,1.6016,0.0361,0.0722
2018-08-03 11:00:00+00:00,1533295151,17.968,44853.04,34.13,33.68,,,,,3.25,42.03,47.178,0.66082,1.019,1.6304,0.0337,0.0674
2018-08-03 11:20:00+00:00,1533296351,17.727,44705.53,34.21,33.75,,,,,3.05,39.33,49.287,0.69035,1.019,1.6304,0.0452,0.0904
2018-08-03 11:40:00+00:00,1533297551,17.527,44423.96,34.14,33.68,,,,,3.34,42.84,50.36,0.70539,1.023,1.6368,0.0369,0.0738
2018-08-03 12:00:00+00:00,1533298751,17.327,44139.21,34.06,33.62,,,,,3.82,48.87,54.085,0.75757,1.022,1.6352,0.0231,0.0462
2018-08-03 12:20:00+00:00,1533299952,17.234,44530.62,34.48,33.99,,,,,3.7,47.39,57.239,0.80173,1.0215,1.6344,0.03915,0.0783
2018-08-03 12:40:00+00:00,1533301151,17.111,44551.45,34.6,34.1,,,,,3.37,43.11,57.912,0.81118,1.023,1.6368,-0.0646,-0.1292
2018-08-03 13:00:00+00:00,1533302351,17.265,44624.87,34.53,34.03,,,,,2.34,30,56.303,0.78862,1.022,1.6352,0.0692,0.1384
2018-08-03 13:20:00+00:00,1533303552,17.407,44674.71,34.45,33.96,,,,,1.58,20.32,50.63,0.70914,1.02,1.632,0.0353,0.0706
2018-08-03 13:40:00+00:00,1533304752,17.332,44682.17,34.53,34.03,,,,,1.91,24.51,48.232,0.67557,1.019,1.6304,0.0506,0.1012
2018-08-03 14:00:00+00:00,1533305951,17.319,44434.48,34.32,33.85,,,,,1.42,18.14,44.941,0.62944,1.02,1.632,-0.0414,-0.0828
2018-08-03 14:20:00+00:00,1533307151,17.288,44522.35,34.43,33.94,,,,,1.46,18.67,40.239,0.56364,1.0195,1.6312,0.03985,0.0797
2018-08-03 15:00:00+00:00,1533309551,17.309,44599.91,34.47,33.98,,,,,0.5,6.43,34.51,0.48338,1.021,1.6336,0.0184,0.0368
2018-08-03 15:20:00+00:00,1533310751,17.143,44550.86,34.57,34.07,,,,,0.76,9.73,34.248,0.4797,1.0205,1.6328,0.0192,0.0384
2018-08-03 15:40:00+00:00,1533311951,17.19,44925.1,34.86,34.32,,,,,0.64,8.2,34.489,0.48303,1.019,1.6304,-0.0123,-0.0246
2018-08-03 16:00:00+00:00,1533313151,17.183,43663.81,33.77,33.36,,,,,0.8,10.23,33.147,0.46426,0.771,1.2336,0.0103,0.0206
2018-08-03 16:20:00+00:00,1533314351,17.133,43720.16,33.86,33.44,,,,,0.73,9.25,34.113,0.47783,1.0195,1.6312,0.00845,0.0169
2018-08-03 16:40:00+00:00,1533315551,17.018,43494.97,33.76,33.36,,,,,0.59,7.48,33.928,0.47521,0.883,1.4128,0.0079,0.0158
2018-08-03 17:00:00+00:00,1533316751,16.833,43148.96,33.62,33.23,,,,,0.98,12.39,35.75,0.50074,1.019,1.6304,0.0169,0.0338
2018-08-03 17:20:00+00:00,1533317951,16.788,43168.49,33.67,33.28,,,,,1.06,13.43,34.207,0.47915,1.021,1.6336,0.0238,0.0476
2018-08-03 17:40:00+00:00,1533319151,16.785,43415.76,33.89,33.47,,,,,1.65,20.82,44.32,0.62079,1.019,1.6304,0.0169,0.0338
2018-08-03 18:00:00+00:00,1533320351,17.041,43619.66,33.85,33.44,,,,,2.11,26.85,41.84,0.58605,1.019,1.6304,0.0123,0.0246
2018-08-03 18:20:00+00:00,1533321551,17.31,43528.01,33.55,33.16,,,,,2.21,28.22,35.055,0.49101,1.0175,1.628,0.0337,0.0674
2018-08-03 18:40:00+00:00,1533322751,17.628,44159.59,33.83,33.41,,,,,3.35,42.98,29.489,0.41305,1.019,1.6304,0.0077,0.0154
2018-08-03 19:00:00+00:00,1533323951,18.112,45056.32,34.19,33.72,,,,,5.69,73.86,28.837,0.40394,1.019,1.6304,0.0199,0.0398
2018-08-03 19:20:00+00:00,1533325151,18.623,45473.47,34.11,33.66,,,,,6.7,87.86,29.001,0.40622,1.018,1.6288,5.00000000000014e-005,0.000100000000000003
2018-08-03 19:40:00+00:00,1533326351,19.001,47150.77,35.2,34.61,,,,,7,93.07,26.765,0.3749,1.017,1.6272,0.0153,0.0306
2018-08-03 20:00:00+00:00,1533327551,19.451,46498.82,34.29,33.81,,,,,7.66,102.03,24.491,0.34307,1.017,1.6272,0.0199,0.0398
2018-08-03 20:20:00+00:00,1533328751,19.775,46930.15,34.38,33.89,,,,,8.45,113.32,25.035,0.35067,1.0175,1.628,0.0299,0.0598
2018-08-03 20:40:00+00:00,1533329951,20.01,46695.62,33.99,33.55,,,,,10.03,134.83,24.52,0.34345,1.018,1.6288,0.0322,0.0644
2018-08-03 21:00:00+00:00,1533331151,20.22,46811.28,33.92,33.48,,,,,11.06,149.13,26.012,0.36434,1.019,1.6304,-0.0046,-0.0092
2018-08-03 21:20:00+00:00,1533332351,20.357,46362.5,33.44,33.07,,,,,10.84,146.14,27.323,0.38271,1.0175,1.628,0.0352,0.0704
2018-08-03 21:40:00+00:00,1533333551,20.742,46463.94,33.22,32.88,,,,,10.75,145.74,29.879,0.41852,1.021,1.6336,0.0107,0.0214
2018-08-03 22:00:00+00:00,1533334751,20.776,46220.59,33,32.68,,,,,12.67,171.75,31.852,0.44613,1.022,1.6352,0.1168,0.2336
2018-08-03 22:20:00+00:00,1533335951,20.949,46874.4,33.39,33.02,,,,,12.18,165.92,31.801,0.44544,1.024,1.6384,0.03155,0.0631
2018-08-03 22:40:00+00:00,1533337151,20.915,46107.6,32.81,32.51,,,,,11.65,158.16,31.273,0.43802,1.022,1.6352,0.063,0.126
2018-08-03 23:00:00+00:00,1533338351,20.926,48180.21,34.45,33.96,,,,,13.63,186.83,30.44,0.42635,1.024,1.6384,0.0755,0.151
2018-08-03 23:20:00+00:00,1533339551,21.176,48863.84,34.8,34.26,,,,,10.92,150.66,31.433,0.44029,1.028,1.6448,0.0897,0.1794
2018-08-03 23:40:00+00:00,1533340751,21.221,48380.31,34.38,33.89,,,,,10.13,139.54,36.471,0.51085,1.03,1.648,0.0666,0.1332
2018-08-04 00:00:00+00:00,1533341951,21.249,48602.55,34.53,34.03,,,,,10.42,143.71,36.077,0.50532,1.032,1.6512,0.1103,0.2206
2018-08-04 00:20:00+00:00,1533343151,21.191,48542.74,34.53,34.03,,,,,10.14,139.72,35.616,0.49883,1.036,1.6576,0.0788,0.1576
2018-08-04 00:40:00+00:00,1533344351,21.005,48461.63,34.61,34.1,,,,,11.68,160.4,34.633,0.48511,1.038,1.6608,0.0672,0.1344
2018-08-04 01:00:00+00:00,1533345551,20.455,47454.57,34.25,33.78,,,,,13.48,182.91,38.318,0.53672,1.039,1.6624,0.097,0.194
2018-08-04 01:20:00+00:00,1533346751,19.408,46373.27,34.22,33.75,,,,,12.54,166.9,50.378,0.70564,1.0405,1.6648,0.09555,0.1911
2018-08-04 01:40:00+00:00,1533347951,19.235,47437.08,35.25,34.65,,,,,12.55,167.6,66.894,0.93696,1.041,1.6656,0.116,0.232
2018-08-04 02:00:00+00:00,1533349151,19.006,45870.91,34.13,33.67,,,,,12.74,168.31,79.095,1.10786,1.042,1.6672,0.0816,0.1632
2018-08-04 02:20:00+00:00,1533350351,18.91,46133.75,34.43,33.93,,,,,12.69,167.56,86.624,1.21332,1.042,1.6672,0.0792,0.1584
2018-08-04 02:40:00+00:00,1533351551,18.782,46040.63,34.46,33.96,,,,,12.86,169.44,87.857,1.23059,1.043,1.6688,0.135,0.27
2018-08-04 03:00:00+00:00,1533352751,18.596,45036.34,33.77,33.35,,,,,11.75,153.66,90.506,1.26768,1.042,1.6672,0.0627,0.1254
2018-08-04 03:20:00+00:00,1533353950,18.525,44214.2,33.14,32.8,,,,,11.58,150.67,94.353,1.32156,1.043,1.6688,0.08005,0.1601
2018-08-04 03:40:00+00:00,1533355151,18.506,43958.74,32.94,32.62,,,,,11.69,151.83,89.168,1.24894,1.043,1.6688,0.0769,0.1538
2018-08-04 04:00:00+00:00,1533356351,18.374,41203.11,30.74,30.66,,,,,12.14,155.29,88.754,1.24315,1.042,1.6672,0.0659,0.1318
2018-08-04 04:20:00+00:00,1533357551,18.283,43030.74,32.34,32.09,,,,,10.97,141.42,90.117,1.26222,1.043,1.6688,0.01415,0.0283
2018-08-04 04:40:00+00:00,1533358751,18.074,46484.75,35.44,34.82,,,,,11.3,147.83,90.836,1.27231,0.544,0.8704,0.0048,0.0096
2018-08-04 05:00:00+00:00,1533359951,17.777,43674.13,33.29,32.93,,,,,10.54,135.27,91.938,1.28776,-1,-1,0,0
2018-08-04 05:20:00+00:00,1533361151,17.524,43446.19,33.3,32.94,,,,,10.06,128.47,94.861,1.32865,1.044,1.6704,0.02595,0.0519
2018-08-04 05:40:00+00:00,1533362351,17.411,43146.67,33.14,32.8,,,,,10,127.36,97.924,1.37163,1.046,1.6736,0.0803,0.1606
2018-08-04 06:00:00+00:00,1533363550,17.377,42794.59,32.86,32.56,,,,,10.12,128.57,102.853,1.44065,1.046,1.6736,-0.0772,-0.1544
2018-08-04 06:20:00+00:00,1533364751,17.379,43104.76,33.13,32.79,,,,,10.3,131.06,104.03,1.45709,1.0465,1.6744,-0.01025,-0.0205
2018-08-04 06:40:00+00:00,1533365951,17.467,43103.58,33.05,32.73,,,,,10.42,132.75,102.818,1.44009,1.046,1.6736,-0.0551,-0.1102
2018-08-04 07:00:00+00:00,1533367151,17.479,43049.62,33,32.68,,,,,10.46,133.32,98.528,1.38004,1.047,1.6752,0,0
2018-08-04 07:20:00+00:00,1533368351,17.476,43231.68,33.16,32.82,,,,,10.52,134.21,96.462,1.35111,1.047,1.6752,0.0607,0.1214
2018-08-04 07:40:00+00:00,1533369551,17.408,43255.82,33.23,32.88,,,,,10.16,129.48,95.643,1.33966,1.047,1.6752,0.0441,0.0882
2018-08-04 08:00:00+00:00,1533370751,17.337,43279.16,33.31,32.96,,,,,10.07,128.24,94.114,1.31824,1.047,1.6752,-0.0047,-0.0094
2018-08-04 08:20:00+00:00,1533371951,17.307,42846.1,32.96,32.65,,,,,10.03,127.41,92.17,1.29098,1.047,1.6752,-0.0315,-0.063
2018-08-04 08:40:00+00:00,1533373151,17.291,43246.7,33.32,32.96,,,,,9.01,114.67,90.383,1.26597,1.047,1.6752,0.0426,0.0852
2018-08-04 09:00:00+00:00,1533374350,17.252,43081.3,33.21,32.87,,,,,9,114.33,89.997,1.26056,1.047,1.6752,-0.0473,-0.0946
2018-08-04 09:20:00+00:00,1533375550,17.234,43070.65,33.22,32.87,,,,,7.99,101.56,89.635,1.25549,1.047,1.6752,0.04805,0.0961
2018-08-04 09:40:00+00:00,1533376750,17.128,42904.54,33.16,32.82,,,,,8.62,109.22,89.604,1.25507,1.047,1.6752,0.0473,0.0946
2018-08-04 10:00:00+00:00,1533377951,17.046,42789.45,33.13,32.8,,,,,8.37,105.85,90.353,1.26556,1.047,1.6752,0.0363,0.0726
2018-08-04 10:20:00+00:00,1533379151,16.943,42637.05,33.08,32.75,,,,,7.9,99.69,89.321,1.25108,1.0485,1.6776,0.0016,0.0032
2018-08-04 10:40:00+00:00,1533380350,16.866,42548.77,33.07,32.74,,,,,7.73,97.41,89.766,1.25733,1.049,1.6784,-0.0158,-0.0316
2018-08-04 11:00:00+00:00,1533381550,16.778,42363.3,32.98,32.67,,,,,7.38,92.83,88.376,1.23785,1.05,1.68,0.0411,0.0822
2018-08-04 11:20:00+00:00,1533382751,16.662,42355.62,33.07,32.75,,,,,6.62,83.12,90.461,1.26707,1.051,1.6816,-0.03005,-0.0601
2018-08-04 11:40:00+00:00,1533383951,16.508,42014.88,32.9,32.6,,,,,6.18,77.26,89.505,1.25366,1.051,1.6816,-0.0586,-0.1172
2018-08-04 12:00:00+00:00,1533385150,16.318,41832.35,32.89,32.6,,,,,6.18,76.99,89.733,1.25685,1.051,1.6816,-0.0301,-0.0602
2018-08-04 12:20:00+00:00,1533386351,16.255,41855.66,32.97,32.66,,,,,5.58,69.42,89.606,1.2551,1.0515,1.6824,0.0839,0.1678
2018-08-04 12:40:00+00:00,1533387551,16.128,41662.8,32.9,32.61,,,,,5.81,72.1,89.087,1.24781,1.052,1.6832,0.0317,0.0634
2018-08-04 13:00:00+00:00,1533388751,16.022,41784.65,33.1,32.78,,,,,5.56,68.99,90.27,1.2644,1.053,1.6848,-0.1174,-0.2348
2018-08-04 13:20:00+00:00,1533389950,15.924,41798.39,33.19,32.87,,,,,5.29,65.55,91.523,1.28194,1.0545,1.6872,0.02065,0.0413
2018-08-20 18:20:00+00:00,1534790341,17.779,42577.22,32.35,32.1,,,,,0.28,3.56,31.186,0.43679,1.061,1.6976,0.0615,0.123
2018-08-20 18:40:00+00:00,1534791541,17.8,43349.45,32.99,32.67,,,,,0.24,3.13,31.891,0.44666,1.061,1.6976,0.0607,0.1214
2018-08-20 19:00:00+00:00,1534792741,17.837,41760.61,31.62,31.45,,,,,0.25,3.15,34.47,0.48279,1.061,1.6976,-0.0032,-0.0064
2018-08-20 19:20:00+00:00,1534793941,17.858,44032.83,33.53,33.14,,,,,1.43,18.45,41.275,0.57814,1.062,1.6992,0.0256,0.0512
2018-08-20 19:40:00+00:00,1534795140,17.931,44029.6,33.46,33.09,,,,,2.7,34.81,43.303,0.60653,1.062,1.6992,0.0528,0.1056
2018-08-20 20:00:00+00:00,1534796341,17.98,44126.67,33.51,33.12,,,,,3.45,44.56,45.345,0.63516,1.062,1.6992,0.0288,0.0576
2018-08-20 20:20:00+00:00,1534797541,18.065,44936.08,34.12,33.67,,,,,3.92,50.91,49.919,0.69921,1.0615,1.6984,0.06315,0.1263
2018-08-20 20:40:00+00:00,1534798741,18.199,45121.18,34.17,33.71,,,,,4.39,57.15,53.223,0.74549,1.061,1.6976,0.0879,0.1758
2018-08-20 21:00:00+00:00,1534799941,18.271,44456.58,33.55,33.16,,,,,4.79,62.22,54.371,0.76156,1.061,1.6976,0.0719,0.1438
2018-08-20 21:20:00+00:00,1534801141,18.376,43838.63,32.94,32.62,,,,,4.38,56.81,56.458,0.79078,1.0615,1.6984,0.07515,0.1503
2018-08-20 21:40:00+00:00,1534802341,18.502,42445.89,31.68,31.5,,,,,4.81,61.95,57.893,0.81089,1.062,1.6992,0.0224,0.0448
2018-08-20 22:00:00+00:00,1534803541,18.651,42184.78,31.35,31.2,,,,,5.37,69.25,60.313,0.84477,1.061,1.6976,0.0671,0.1342
2018-08-20 22:20:00+00:00,1534804741,18.801,42079.09,31.15,31.02,,,,,6.24,80.69,60.954,0.85377,1.0625,1.7,0.0256,0.0512
2018-08-20 22:40:00+00:00,1534805941,18.945,42537.19,31.42,31.27,,,,,6.25,81.07,63.469,0.889,1.063,1.7008,0.0384,0.0768
2018-08-20 23:00:00+00:00,1534807141,19.11,40531.1,29.65,29.69,,,,,6.13,79.03,61.633,0.86325,1.064,1.7024,0.0689,0.1378
2018-08-20 23:20:00+00:00,1534808340,19.308,39439.55,28.63,28.76,,,,,7.48,96.09,62.036,0.86895,1.064,1.7024,0.0577,0.1154
2018-08-20 23:40:00+00:00,1534809541,19.507,39698.51,28.7,28.83,,,,,8.41,108.5,66.189,0.92708,1.058,1.6928,0.0908,0.1816
2018-08-21 00:00:00+00:00,1534810741,19.648,39957.63,28.81,28.93,,,,,8.92,115.53,69.66,0.97571,1.064,1.7024,0.117,0.234
2018-08-21 00:20:00+00:00,1534811941,19.689,40038.05,28.85,28.96,,,,,8.97,116.22,72.74,1.01886,1.064,1.7024,0.0882,0.1764
2018-08-21 00:40:00+00:00,1534813140,19.757,40100.25,28.85,28.97,,,,,9.4,122.07,75.154,1.05267,1.066,1.7056,0.1317,0.2634
2018-08-21 01:00:00+00:00,1534814341,19.76,39935.11,28.72,28.84,,,,,9.15,118.68,76.531,1.07195,1.067,1.7072,0.1238,0.2476